Greenville/Spartanburg, SC

10:31 PM EDT on October 16, 2017 (GMT -0400)
Greenville-Spartanburg International

Weather History for KGSP - July, 2013

Change the Weather History Date:

Friday, July 26, 2013

  Actual Average Record
Temperature  
Mean Temperature 75 °F 80 °F  
Max Temperature 83 °F 90 °F 99 °F (1987)
Min Temperature 67 °F 70 °F 53 °F (1911)
Degree Days  
Heating Degree Days 0 0  
Month to date heating degree days 0 0  
Since 1 June heating degree days 0 2  
Since 1 July heating degree days 0 0  
Cooling Degree Days 10 15  
Month to date cooling degree days 330 388  
Year to date cooling degree days 839 940  
Since 1 June cooling degree days 677 739  
Growing Degree Days 24 (Base 50)    
Moisture  
Dew Point 68 °F    
Average Humidity 79    
Maximum Humidity 93    
Minimum Humidity 65    
Precipitation  
Precipitation T in 0.17 in 1.72 in (1943)
Month to date precipitation 13.81 3.98  
Year to date precipitation 46.40 27.21  
Snow  
Snow 0.00 in 0.00 in 0.00 in ()
Month to date snowfall 0.0 0.0  
Since 1 June snowfall 0.0 0.0  
Since 1 July snowfall 0.0 0.0  
Snow Depth 0.00 in    
Sea Level Pressure  
Sea Level Pressure 30.04 in    
Wind  
Wind Speed 5 mph (ENE)    
Max Wind Speed 15 mph    
Max Gust Speed 21 mph    
Visibility 10 miles    
Events Rain    
T = Trace of Precipitation, MM = Missing Value Source: NWS Daily Summary

Daily Weather History Graph

Daily Weather History Graph

Search for Another Location

Airport or City:

Trip Planner

Search our weather history database for the weather conditions in past years. The results will help you decide how hot, cold, wet, or windy it might be!

Date:

Astronomy

Jul. 26, 2013 Rise Set
Actual Time 6:34 AM EDT 8:36 PM EDT
Civil Twilight 6:06 AM EDT 9:04 PM EDT
Nautical Twilight 5:31 AM EDT 9:38 PM EDT
Astronomical Twilight 4:54 AM EDT 10:15 PM EDT
Moon 11:04 PM EDT (7/26) 10:55 AM EDT (7/26)
Length of Visible Light 14h 58m
Length of Day
14h 01m
Waning Gibbous, 80% of the Moon is Illuminated
Jul 26
Waning Gibbous
Jul 29
Last Quarter
Aug 6
New
Aug 14
First Quarter
Aug 20
Full

Hourly Weather History & Observations

Time (EDT) Temp. Heat Index Dew Point Humidity Pressure Visibility Wind Dir Wind Speed Gust Speed Precip Events Conditions
12:53 AM 68.0 °F - 66.0 °F 93% 30.01 in 10.0 mi Calm Calm - N/A   Mostly Cloudy
1:53 AM 69.1 °F - 64.9 °F 87% 30.01 in 10.0 mi NNE 3.5 mph - N/A   Partly Cloudy
2:07 AM 68.0 °F - 66.2 °F 94% 30.04 in 10.0 mi NNE 3.5 mph - N/A   Mostly Cloudy
2:14 AM 68.0 °F - 66.2 °F 94% 30.04 in 10.0 mi NNE 3.5 mph - N/A   Scattered Clouds
2:53 AM 68.0 °F - 64.9 °F 90% 30.00 in 10.0 mi NNE 4.6 mph - N/A   Partly Cloudy
3:07 AM 68.0 °F - 66.2 °F 94% 30.04 in 10.0 mi NNE 3.5 mph - N/A   Mostly Cloudy
3:32 AM 68.0 °F - 66.2 °F 94% 30.04 in 10.0 mi NNE 5.8 mph - N/A   Mostly Cloudy
3:53 AM 68.0 °F - 66.0 °F 93% 30.01 in 10.0 mi NNE 3.5 mph - N/A   Overcast
4:44 AM 68.0 °F - 66.2 °F 94% 30.04 in 10.0 mi NE 4.6 mph - N/A   Mostly Cloudy
4:53 AM 68.0 °F - 66.9 °F 96% 30.01 in 10.0 mi NE 5.8 mph - N/A   Scattered Clouds
5:27 AM 69.8 °F - 66.2 °F 88% 30.05 in 10.0 mi North 3.5 mph - N/A   Mostly Cloudy
5:36 AM 69.8 °F - 66.2 °F 88% 30.06 in 10.0 mi North 3.5 mph - N/A   Mostly Cloudy
5:45 AM 68.0 °F - 66.2 °F 94% 30.06 in 10.0 mi North 3.5 mph - N/A   Mostly Cloudy
5:53 AM 68.0 °F - 66.9 °F 96% 30.03 in 9.0 mi North 3.5 mph - N/A   Mostly Cloudy
6:21 AM 69.8 °F - 66.2 °F 88% 30.07 in 10.0 mi Calm Calm - N/A   Overcast
6:53 AM 69.1 °F - 66.9 °F 93% 30.05 in 6.0 mi Calm Calm - N/A   Scattered Clouds
7:30 AM 69.8 °F - 66.2 °F 88% 30.08 in 8.0 mi Calm Calm - N/A   Mostly Cloudy
7:53 AM 69.1 °F - 66.9 °F 93% 30.06 in 7.0 mi Calm Calm - N/A   Scattered Clouds
8:53 AM 73.0 °F - 69.1 °F 87% 30.08 in 8.0 mi Variable 4.6 mph - N/A   Scattered Clouds
9:03 AM 73.4 °F - 69.8 °F 88% 30.11 in 8.0 mi Calm Calm - N/A   Mostly Cloudy
9:53 AM 75.0 °F - 69.1 °F 82% 30.08 in 9.0 mi SE 8.1 mph - N/A   Mostly Cloudy
10:53 AM 77.0 °F - 70.0 °F 79% 30.08 in 10.0 mi Calm Calm - N/A   Mostly Cloudy
11:53 AM 79.0 °F - 69.1 °F 72% 30.08 in 10.0 mi East 4.6 mph - N/A   Mostly Cloudy
12:53 PM 82.0 °F 85.5 °F 69.1 °F 65% 30.07 in 10.0 mi ESE 6.9 mph - N/A   Mostly Cloudy
1:53 PM 82.0 °F 85.5 °F 69.1 °F 65% 30.05 in 10.0 mi SE 5.8 mph - N/A   Mostly Cloudy
2:53 PM 81.0 °F 83.8 °F 68.0 °F 65% 30.04 in 10.0 mi North 6.9 mph - N/A   Overcast
3:53 PM 79.0 °F - 70.0 °F 74% 30.03 in 9.0 mi North 10.4 mph - 0.00 in Rain Light Rain
4:53 PM 80.1 °F 83.2 °F 70.0 °F 71% 30.00 in 10.0 mi East 5.8 mph - 0.00 in   Mostly Cloudy
5:53 PM 82.9 °F 86.5 °F 69.1 °F 63% 30.00 in 10.0 mi ESE 8.1 mph - N/A   Partly Cloudy
6:53 PM 82.0 °F 85.5 °F 69.1 °F 65% 29.99 in 10.0 mi SSE 5.8 mph - N/A   Clear
7:53 PM 78.1 °F - 70.0 °F 76% 30.00 in 10.0 mi SSE 3.5 mph - N/A   Scattered Clouds
8:53 PM 75.0 °F - 71.1 °F 87% 30.00 in 10.0 mi SE 4.6 mph - N/A   Scattered Clouds
9:53 PM 73.0 °F - 71.1 °F 93% 30.00 in 10.0 mi ESE 4.6 mph - N/A   Clear
10:53 PM 73.0 °F - 70.0 °F 90% 30.01 in 9.0 mi ESE 4.6 mph - N/A   Clear
11:53 PM 73.0 °F - 70.0 °F 90% 30.00 in 10.0 mi SE 5.8 mph - N/A   Scattered Clouds